• In Austria
  • List of Countries
  • For 7 days
  • Water Temperature
  • Satellite Maps
  • Weather Map
  • News
  • Weather Widgets
  • user-avatar
    Login

    Hourly Weather Corfu

    Today, 22 September, Saturday

    Time Temperature Precipitation Wind Pressure Humidity
    00:00 +23°C° 0 mm 1 mps 762 mmHg 69%
    01:00 +23°C° 0 mm 1 mps 762 mmHg 69%
    02:00 +23°C° 0 mm 1 mps 762 mmHg 68%
    03:00 +23°C° 0 mm 1 mps 762 mmHg 67%
    04:00 +22°C° 0 mm 1 mps 762 mmHg 66%
    05:00 +23°C° 0 mm 1 mps 762 mmHg 63%
    06:00 +24°C° 0 mm 1 mps 762 mmHg 60%
    07:00 +25°C° 0 mm 1 mps 762 mmHg 57%
    08:00 +27°C° 0 mm 1 mps 762 mmHg 52%
    09:00 +29°C° 0 mm 1 mps 763 mmHg 48%
    10:00 +31°C° 0 mm 1 mps 763 mmHg 43%
    11:00 +31°C° 0 mm 1 mps 763 mmHg 43%
    12:00 +32°C° 0 mm 2 mps 763 mmHg 42%
    13:00 +32°C° 0 mm 2 mps 762 mmHg 41%
    14:00 +33°C° 0 mm 3 mps 762 mmHg 45%
    15:00 +31°C° 0 mm 3 mps 762 mmHg 48%
    16:00 +30°C° 0 mm 3 mps 762 mmHg 52%
    17:00 +29°C° 0 mm 2 mps 762 mmHg 59%
    18:00 +27°C° 0 mm 2 mps 762 mmHg 67%
    19:00 +25°C° 0 mm 2 mps 763 mmHg 74%
    20:00 +25°C° 0 mm 2 mps 763 mmHg 76%
    21:00 +25°C° 0 mm 2 mps 763 mmHg 77%
    22:00 +24°C° 0 mm 2 mps 764 mmHg 78%
    23:00 +24°C° 0 mm 2 mps 764 mmHg 78%

    Tomorrow, 23 September, Sunday

    Time Temperature Precipitation Wind Pressure Humidity
    00:00 +24°C° 0 mm 2 mps 764 mmHg 78%
    01:00 +24°C° 0 mm 2 mps 764 mmHg 78%
    02:00 +23°C° 0 mm 2 mps 764 mmHg 77%
    03:00 +23°C° 0 mm 2 mps 764 mmHg 76%
    04:00 +23°C° 0 mm 2 mps 764 mmHg 76%
    05:00 +24°C° 0 mm 2 mps 764 mmHg 71%
    06:00 +25°C° 0 mm 2 mps 764 mmHg 67%
    07:00 +26°C° 0 mm 2 mps 764 mmHg 62%
    08:00 +28°C° 0 mm 2 mps 764 mmHg 55%
    09:00 +31°C° 0 mm 2 mps 764 mmHg 48%
    10:00 +34°C° 0 mm 2 mps 765 mmHg 40%
    11:00 +34°C° 0 mm 2 mps 764 mmHg 39%
    12:00 +35°C° 0 mm 3 mps 764 mmHg 38%
    13:00 +35°C° 0 mm 3 mps 764 mmHg 37%
    14:00 +34°C° 0 mm 3 mps 764 mmHg 40%
    15:00 +34°C° 0 mm 3 mps 763 mmHg 43%
    16:00 +33°C° 0 mm 3 mps 763 mmHg 46%
    17:00 +30°C° 0 mm 3 mps 763 mmHg 53%
    18:00 +28°C° 0 mm 2 mps 763 mmHg 60%
    19:00 +26°C° 0 mm 2 mps 764 mmHg 67%
    20:00 +26°C° 0 mm 2 mps 764 mmHg 68%
    21:00 +26°C° 0 mm 2 mps 764 mmHg 70%
    22:00 +25°C° 0 mm 1 mps 764 mmHg 71%
    23:00 +25°C° 0 mm 1 mps 764 mmHg 72%

    Day after tomorrow, 24 September, Monday

    Time Temperature Precipitation Wind Pressure Humidity
    00:00 +25°C° 0 mm 1 mps 763 mmHg 74%
    01:00 +24°C° 0 mm 1 mps 763 mmHg 75%
    02:00 +24°C° 0 mm 1 mps 763 mmHg 76%
    03:00 +23°C° 0 mm 1 mps 762 mmHg 78%
    04:00 +23°C° 0 mm 1 mps 762 mmHg 79%
    05:00 +24°C° 0 mm 1 mps 762 mmHg 75%
    06:00 +25°C° 0 mm 1 mps 762 mmHg 71%
    07:00 +25°C° 0 mm 2 mps 762 mmHg 67%
    08:00 +27°C° 0 mm 2 mps 762 mmHg 60%
    09:00 +29°C° 0 mm 2 mps 762 mmHg 52%
    10:00 +31°C° 0 mm 2 mps 762 mmHg 44%
    11:00 +31°C° 0 mm 2 mps 762 mmHg 43%
    12:00 +32°C° 0 mm 2 mps 761 mmHg 42%
    13:00 +33°C° 0 mm 3 mps 761 mmHg 41%
    14:00 +32°C° 0 mm 2 mps 760 mmHg 44%
    15:00 +31°C° 0 mm 2 mps 760 mmHg 48%
    16:00 +30°C° 0 mm 2 mps 759 mmHg 51%
    17:00 +29°C° 0 mm 2 mps 760 mmHg 60%
    18:00 +27°C° 0 mm 1 mps 760 mmHg 69%
    19:00 +25°C° 0 mm 1 mps 761 mmHg 79%
    20:00 +25°C° 0 mm 1 mps 761 mmHg 79%
    21:00 +25°C° 0 mm 1 mps 761 mmHg 80%
    22:00 +24°C° 0 mm 1 mps 762 mmHg 80%
    23:00 +24°C° 0 mm 1 mps 762 mmHg 78%

    25 September, Tuesday

    Time Temperature Precipitation Wind Pressure Humidity
    00:00 +24°C° 0 mm 1 mps 762 mmHg 75%
    01:00 +23°C° 0 mm 1 mps 762 mmHg 72%
    02:00 +23°C° 0 mm 2 mps 762 mmHg 69%
    03:00 +23°C° 0 mm 2 mps 762 mmHg 65%
    04:00 +21°C° 0 mm 2 mps 762 mmHg 61%
    05:00 +22°C° 0 mm 3 mps 762 mmHg 56%
    06:00 +22°C° 0 mm 3 mps 763 mmHg 51%
    07:00 +22°C° 0 mm 4 mps 763 mmHg 46%
    08:00 +26°C° 0 mm 3 mps 763 mmHg 41%
    09:00 +28°C° 0 mm 3 mps 763 mmHg 36%
    10:00 +30°C° 0 mm 3 mps 764 mmHg 31%
    11:00 +31°C° 0 mm 3 mps 764 mmHg 31%
    12:00 +33°C° 0 mm 4 mps 763 mmHg 31%
    13:00 +34°C° 0 mm 4 mps 763 mmHg 30%
    14:00 +33°C° 0 mm 5 mps 763 mmHg 32%
    15:00 +32°C° 0 mm 6 mps 763 mmHg 34%
    16:00 +30°C° 0 mm 7 mps 763 mmHg 35%
    17:00 +29°C° 0 mm 6 mps 764 mmHg 37%
    18:00 +27°C° 0 mm 6 mps 764 mmHg 39%
    19:00 +26°C° 0 mm 5 mps 765 mmHg 41%
    20:00 +25°C° 0 mm 5 mps 765 mmHg 39%
    21:00 +23°C° 0 mm 5 mps 765 mmHg 37%
    22:00 +22°C° 0 mm 5 mps 766 mmHg 36%
    23:00 +21°C° 0 mm 5 mps 766 mmHg 34%

    26 September, Wednesday

    Time Temperature Precipitation Wind Pressure Humidity
    00:00 +21°C° 0 mm 5 mps 766 mmHg 32%
    01:00 +20°C° 0 mm 5 mps 766 mmHg 30%
    02:00 +19°C° 0 mm 5 mps 766 mmHg 30%
    03:00 +17°C° 0 mm 5 mps 767 mmHg 31%
    04:00 +17°C° 0 mm 4 mps 767 mmHg 32%
    05:00 +17°C° 0 mm 4 mps 767 mmHg 33%
    06:00 +17°C° 0 mm 4 mps 768 mmHg 33%
    07:00 +18°C° 0 mm 4 mps 768 mmHg 34%
    08:00 +20°C° 0 mm 4 mps 768 mmHg 30%
    09:00 +22°C° 0 mm 3 mps 768 mmHg 26%
    10:00 +25°C° 0 mm 3 mps 768 mmHg 22%
    11:00 +26°C° 0 mm 3 mps 768 mmHg 21%
    12:00 +28°C° 0 mm 2 mps 768 mmHg 20%
    13:00 +29°C° 0 mm 2 mps 767 mmHg 18%
    14:00 +28°C° 0 mm 3 mps 767 mmHg 20%
    15:00 +28°C° 0 mm 4 mps 767 mmHg 22%
    16:00 +27°C° 0 mm 5 mps 767 mmHg 23%
    17:00 +25°C° 0 mm 5 mps 767 mmHg 27%
    18:00 +22°C° 0 mm 5 mps 767 mmHg 30%
    19:00 +20°C° 0 mm 5 mps 767 mmHg 33%
    20:00 +20°C° 0 mm 5 mps 768 mmHg 33%
    21:00 +19°C° 0 mm 5 mps 768 mmHg 33%
    22:00 +18°C° 0 mm 4 mps 768 mmHg 32%
    23:00 +18°C° 0 mm 4 mps 768 mmHg 31%

    27 September, Thursday

    Time Temperature Precipitation Wind Pressure Humidity
    00:00 +17°C° 0 mm 4 mps 768 mmHg 30%
    01:00 +17°C° 0 mm 4 mps 768 mmHg 29%
    02:00 +17°C° 0 mm 4 mps 767 mmHg 28%
    03:00 +16°C° 0 mm 3 mps 767 mmHg 27%
    04:00 +16°C° 0 mm 3 mps 767 mmHg 26%
    05:00 +17°C° 0 mm 3 mps 767 mmHg 25%
    06:00 +17°C° 0 mm 3 mps 767 mmHg 25%
    07:00 +18°C° 0 mm 3 mps 767 mmHg 24%
    08:00 +20°C° 0 mm 3 mps 767 mmHg 21%
    09:00 +24°C° 0 mm 2 mps 767 mmHg 18%
    10:00 +26°C° 0 mm 2 mps 767 mmHg 15%
    11:00 +27°C° 0 mm 2 mps 767 mmHg 16%
    12:00 +28°C° 0 mm 2 mps 766 mmHg 17%
    13:00 +29°C° 0 mm 2 mps 766 mmHg 18%
    14:00 +28°C° 0 mm 3 mps 766 mmHg 20%
    15:00 +28°C° 0 mm 3 mps 765 mmHg 23%
    16:00 +27°C° 0 mm 4 mps 765 mmHg 26%
    17:00 +25°C° 0 mm 4 mps 765 mmHg 29%
    18:00 +22°C° 0 mm 4 mps 766 mmHg 33%
    19:00 +21°C° 0 mm 3 mps 766 mmHg 37%
    20:00 +20°C° 0 mm 3 mps 766 mmHg 36%
    21:00 +19°C° 0 mm 3 mps 766 mmHg 36%
    22:00 +19°C° 0 mm 3 mps 766 mmHg 36%
    23:00 +18°C° 0 mm 3 mps 766 mmHg 35%
    Show more